Date String (YYYY-MM-DD hh:mm:ss) UTC,Instrument flags,Ambient pressure (hPa),Sample flow (lpm),Bypass flow (lpm),Sample temperature (°C),Ambient temperature (°C),ASC tube jacket temperature (°C),LED temperature (°C),Box temperature (°C),Sample RH (%),Span deviation,Mass concentration (μg/m³),Mass concentration (μg/m³),Mass concentration (μg/m³)
DateTimeUTC,F1_M11,P_M11,Q1_M11,Q2_M11,T1_M11,T2_M11,T3_M11,T4_M11,T5_M11,U1_M11,ZSPAN_M11,X0_M11,X2_M11,X1_M11
2021-12-14 21:00:00,,0817.0,5.01,0.00,27.8,27.1,00.0,36.7,29.6,07.2,0001.2,0024.55,0006.25,0004.77
2021-12-14 21:01:00,,0817.2,4.99,0.00,27.8,27.1,00.0,36.7,29.6,07.3,0001.4,0026.07,0006.34,0004.83
2021-12-14 21:02:00,,0816.9,5.02,0.00,27.8,27.1,00.0,36.7,29.6,07.2,-000.0,0026.26,0006.34,0004.89
2021-12-14 21:03:00,,0816.8,5.00,0.00,27.8,27.1,00.0,36.7,29.6,07.3,-000.9,0026.04,0006.42,0004.96
2021-12-14 21:04:00,,0816.8,5.00,0.00,27.8,27.1,00.0,36.7,29.6,07.3,-000.8,0026.25,0006.56,0005.03
2021-12-14 21:05:00,,0816.8,5.02,0.00,27.8,27.1,00.0,36.7,29.6,07.3,-000.4,0026.95,0006.66,0005.12
2021-12-14 21:06:00,,0816.8,4.99,0.00,27.9,27.1,00.0,36.7,29.6,07.3,0001.1,0027.48,0006.76,0005.20
2021-12-14 21:07:00,,0817.2,5.00,0.00,27.9,27.2,00.0,36.7,29.7,07.3,0003.0,0027.05,0006.79,0005.25
2021-12-14 21:08:00,,0816.8,4.99,0.00,27.9,27.2,00.0,36.7,29.7,07.3,0004.7,0025.16,0006.86,0005.31
2021-12-14 21:09:00,,0816.9,5.01,0.00,27.9,27.2,00.0,36.8,29.7,07.3,0006.1,0024.33,0006.97,0005.38
2021-12-14 21:10:00,,0816.8,5.01,0.00,27.9,27.2,00.0,36.8,29.7,07.3,0006.6,0023.13,0007.13,0005.44
2021-12-14 21:11:00,,0816.8,5.00,0.00,27.9,27.2,00.0,36.8,29.8,07.3,0005.7,0023.33,0007.22,0005.47
2021-12-14 21:12:00,,0816.8,5.01,0.00,28.0,27.3,00.0,36.8,29.8,07.3,0005.7,0024.07,0007.22,0005.48
2021-12-14 21:13:00,,0817.1,4.99,0.00,28.0,27.3,00.0,36.8,29.8,07.4,0004.8,0022.83,0007.24,0005.48
2021-12-14 21:14:00,,0816.9,5.01,0.00,28.0,27.3,00.0,36.8,29.8,07.3,0004.2,0023.11,0007.20,0005.48
2021-12-14 21:15:00,,0816.6,4.99,0.00,28.0,27.3,00.0,36.8,29.8,07.4,0004.4,0023.65,0007.12,0005.47
2021-12-14 21:16:00,,0816.7,5.00,0.00,28.0,27.4,00.0,36.8,29.8,07.3,0005.7,0023.31,0007.10,0005.46
2021-12-14 21:17:00,,0816.9,4.99,0.00,28.0,27.4,00.0,36.9,29.9,07.3,0005.3,0021.53,0007.06,0005.44
2021-12-14 21:18:00,,0817.0,5.00,0.00,28.1,27.4,00.0,36.9,29.9,07.3,-000.4,0021.93,0007.08,0005.45
2021-12-14 21:19:00,,0817.1,5.01,0.00,28.1,27.4,00.0,36.9,29.9,07.3,0000.7,0023.32,0007.09,0005.45
2021-12-14 21:20:00,,0817.0,5.00,0.00,28.1,27.5,00.0,36.9,29.9,07.3,0000.8,0023.38,0007.07,0005.45
2021-12-14 21:21:00,,0816.9,5.00,0.00,28.1,27.5,00.0,36.9,29.9,07.3,-000.0,0023.77,0007.06,0005.46
2021-12-14 21:22:00,,0816.8,5.01,0.00,28.1,27.5,00.0,36.9,30.0,07.2,-000.5,0022.31,0007.01,0005.46
2021-12-14 21:23:00,,0816.9,5.00,0.00,28.2,27.5,00.0,37.0,30.0,07.2,0010.6,0020.95,0007.00,0005.45
2021-12-14 21:24:00,,0817.3,5.00,0.00,28.2,27.5,00.0,37.0,30.0,07.2,0013.1,0020.55,0007.01,0005.45
2021-12-14 21:25:00,,0816.7,4.99,0.00,28.2,27.6,00.0,37.0,30.0,07.2,0007.3,0020.10,0007.04,0005.44
2021-12-14 21:26:00,,0817.2,5.01,0.00,28.2,27.6,00.0,37.0,30.1,07.2,0012.0,0019.72,0007.06,0005.44
2021-12-14 21:27:00,,0817.0,4.99,0.00,28.3,27.6,00.0,37.1,30.1,07.1,0002.9,0019.28,0007.04,0005.42
2021-12-14 21:28:00,,0817.2,4.99,0.00,28.3,27.6,00.0,37.1,30.1,07.1,0001.5,0020.46,0007.04,0005.40
2021-12-14 21:29:00,,0816.9,4.99,0.00,28.3,27.7,00.0,37.1,30.1,07.1,0004.1,0020.29,0007.02,0005.38
2021-12-14 21:30:00,,0816.7,5.00,0.00,28.3,27.7,00.0,37.1,30.1,07.2,0001.3,0019.46,0007.00,0005.38
2021-12-14 21:31:00,,0817.2,5.00,0.00,28.3,27.7,00.0,37.1,30.2,07.2,0001.1,0020.27,0007.01,0005.38
2021-12-14 21:32:00,,0817.0,5.00,0.00,28.4,27.7,00.0,37.2,30.2,07.1,0000.7,0019.71,0006.98,0005.36
2021-12-14 21:33:00,,0817.1,5.00,0.00,28.4,27.7,00.0,37.2,30.2,07.1,0000.7,0020.36,0006.97,0005.35
2021-12-14 21:34:00,,0816.9,4.99,0.00,28.4,27.7,00.0,37.2,30.2,07.1,0001.4,0021.47,0007.01,0005.36
2021-12-14 21:35:00,,0816.7,5.02,0.00,28.4,27.7,00.0,37.2,30.2,07.1,0000.2,0021.80,0007.02,0005.35
2021-12-14 21:36:00,,0816.8,4.99,0.00,28.4,27.7,00.0,37.2,30.2,07.1,0006.2,0022.21,0006.98,0005.34
2021-12-14 21:37:00,,0816.8,5.01,0.00,28.4,27.7,00.0,37.2,30.2,07.1,0006.9,0022.15,0006.94,0005.34
2021-12-14 21:38:00,,0816.9,4.99,0.00,28.4,27.7,00.0,37.2,30.2,07.1,0011.1,0022.88,0006.96,0005.36
2021-12-14 21:39:00,,0817.0,5.02,0.00,28.4,27.7,00.0,37.3,30.2,07.1,0013.8,0022.83,0007.05,0005.39
2021-12-14 21:40:00,,0817.2,4.99,0.00,28.4,27.6,00.0,37.3,30.1,07.1,0013.6,0022.63,0007.10,0005.42
2021-12-14 21:41:00,,0816.9,5.02,0.00,28.4,27.6,00.0,37.3,30.1,07.1,0013.3,0022.50,0007.10,0005.45
2021-12-14 21:42:00,,0817.1,5.00,0.00,28.4,27.6,00.0,37.3,30.1,07.1,0013.6,0022.82,0007.19,0005.47
2021-12-14 21:43:00,,0817.0,5.00,0.00,28.3,27.6,00.0,37.3,30.1,07.1,0013.5,0024.40,0007.21,0005.51
2021-12-14 21:44:00,,0817.1,4.99,0.00,28.3,27.6,00.0,37.3,30.1,07.1,0013.4,0024.66,0007.34,0005.55
2021-12-14 21:45:00,,0816.8,5.01,0.00,28.4,27.6,00.0,37.3,30.1,07.1,0013.6,0024.31,0007.45,0005.59
2021-12-14 21:46:00,,0816.8,5.00,0.00,28.3,27.6,00.0,37.3,30.1,07.1,0013.3,0024.33,0007.45,0005.63
2021-12-14 21:47:00,,0817.0,4.99,0.00,28.3,27.6,00.0,37.3,30.1,07.1,0013.0,0023.98,0007.52,0005.67
2021-12-14 21:48:00,,0817.0,5.01,0.00,28.3,27.6,00.0,37.3,30.1,07.1,0012.0,0023.69,0007.53,0005.71
2021-12-14 21:49:00,,0817.0,5.00,0.00,28.4,27.6,00.0,37.3,30.1,07.2,0011.0,0024.00,0007.58,0005.73
2021-12-14 21:50:00,,0817.2,5.00,0.00,28.4,27.6,00.0,37.3,30.1,07.2,0008.5,0025.40,0007.64,0005.75
2021-12-14 21:51:00,,0816.8,4.99,0.00,28.4,27.6,00.0,37.3,30.1,07.2,0006.0,0026.94,0007.71,0005.77
2021-12-14 21:52:00,,0816.8,4.99,0.00,28.4,27.7,00.0,37.3,30.2,07.2,0006.4,0029.08,0007.85,0005.79
2021-12-14 21:53:00,,0816.8,5.00,0.00,28.4,27.7,00.0,37.3,30.2,07.2,0006.0,0028.69,0007.84,0005.80
2021-12-14 21:54:00,,0817.0,5.00,0.00,28.4,27.7,00.0,37.3,30.2,07.2,0005.4,0027.56,0007.89,0005.80
2021-12-14 21:55:00,,0816.9,4.98,0.00,28.4,27.7,00.0,37.3,30.2,07.1,0005.1,0026.96,0007.91,0005.79
2021-12-14 21:56:00,,0816.9,5.01,0.00,28.5,27.8,00.0,37.3,30.3,07.1,0005.4,0026.67,0007.86,0005.77
2021-12-14 21:57:00,,0816.9,4.99,0.00,28.5,27.8,00.0,37.3,30.3,07.1,0004.9,0026.95,0007.86,0005.76
2021-12-14 21:58:00,,0816.9,5.01,0.00,28.5,27.8,00.0,37.3,30.3,07.1,0005.4,0027.60,0007.88,0005.76
2021-12-14 21:59:00,,0816.9,5.00,0.00,28.5,27.8,00.0,37.4,30.3,07.1,0005.0,0028.83,0007.91,0005.75
